SCP
0 0 0 1 0 -0 -0 -0 -0 -0 -0 -0 -0 -0 0 0 -0 -0 -0 0 0 0 0 0 0 0 0 0 0 0 0 0 0 0 0 -0 -0 -0 -0 -0 -0 -0 -0 -0 -0 -0 -0 -0 -0
1 0 1 0 -0 -0 0 -0 -0 -0 -0 0 -0 0 -0 0 -0 -0 -0 0 0 0 0 0 0 0 0 0 0 0 0 0 0 0 0 0 -0 -0 0 0 0 -0 -0 -0 -0 0 0 0 0
1 1 0 0 0 0 -0 -0 -0 -0 0 0 0 0 0 -0 -0 -0 0 0 0 0 0 0 0 0 0 0 0 0 0 0 0 0 0 0 0 0 0 0 0 -0 0 0 0 0 0 0 0
1 1 0 0 -0 -0 0 -0 -0 0 0 0 0 0 0 0 -0 0 0 0 0 0 0 0 0 0 0 0 0 0 0 0 0 0 0 0 0 0 0 0 0 0 0 0 0 0 0 0 0
1 0 0 0 -0 0 -0 0 0 -0 0 0 0 -0 0 -0 0 -0 0 0 0 0 0 0 0 0 0 0 0 0 0 0 0 0 0 0 0 0 0 0 0 0 0 0 0 0 0 0 0
0 0 0 0 0 -0 0 0 0 -0 0 -0 -0 -0 0 -0 0 0 0 0 0 0 0 0 0 0 0 0 0 0 0 0 0 0 0 0 0 0 0 0 0 0 0 0 0 0 0 0 0
0 -0 0 0 0 -0 -0 0 -0 -0 0 -0 -0 -0 -0 -0 0 0 0 0 0 0 0 0 0 0 0 0 0 0 0 0 0 0 0 0 0 0 0 0 0 0 0 0 0 0 0 0 0
0 0 0 0 0 -0 0 0 -0 0 -0 -0 -0 0 -0 -0 0 0 -0 0 0 0 0 0 0 0 0 0 0 0 0 0 0 0 0 0 0 0 0 0 0 0 0 0 0 0 0 0 0
0 0 -0 0 -0 0 0 0 0 0 -0 0 0 -0 -0 -0 -0 -0 -0 -0 0 0 0 0 0 0 0 0 0 0 0 0 0 -0 0 0 0 0 0 -0 0 0 0 0 0 0 0 0 0
0 0 0 0 0 0 0 0 0 -0 -0 -0 -0 -0 -0 -0 -0 -0 -0 -0 -0 -0 0 0 0 0 0 0 0 0 0 0 0 0 0 0 0 0 0 -0 0 0 -0 0 0 0 0 0 0
0 0 0 0 0 0 0 0 0 -0 0 -0 -0 -0 -0 -0 -0 -0 -0 -0 -0 -0 -0 0 0 0 0 0 0 0 0 0 0 0 -0 -0 0 0 0 0 0 0 -0 0 -0 0 0 0 0
0 0 -0 0 0 0 0 0 0 0 0 -0 -0 -0 -0 -0 -0 -0 -0 -0 -0 -0 -0 -0 -0 0 0 0 -0 0 -0 -0 0 -0 0 0 -0 0 0 0 0 0 -0 -0 0 0 0 0 0
-0 0 -0 0 0 0 0 0 0 0 0 -0 -0 -0 -0 -0 -0 -0 -0 -0 -0 -0 -0 -0 -0 -0 0 -0 0 0 0 0 0 0 0 0 0 0 -0 0 0 0 -0 0 -0 -0 0 -0 -0
0 0 -0 0 0 0 0 0 0 0 -0 -0 -0 -0 -0 -0 -0 0 0 0 -0 -0 -0 -0 0 0 0 0 0 0 0 -0 -0 -0 -0 -0 -0 0 -0 0 -0 0 -0 0 -0 -0 -0 -0 -0
0 -0 -0 -0 -0 0 0 0 0 0 -0 -0 -0 -0 -0 -0 -0 -0 0 0 -0 0 0 0 0 0 -0 -0 -0 0 0 -0 0 -0 -0 0 0 -0 -0 0 0 0 0 -0 -0 -0 -0 -0 0
-0 -0 -0 -0 -0 0 -0 0 0 0 -0 -0 -0 -0 -0 -0 -0 -0 -0 0 -0 0 0 0 -0 -0 -0 -0 -0 -0 -0 0 0 0 0 -0 -0 -0 0 0 0 0 0 0 -0 0 0 -0 -0
0 -0 0 -0 -0 -0 -0 -0 -0 -0 -0 -0 -0 -0 -0 -0 -0 -0 0 0 -0 0 0 0 0 0 -0 -0 -0 -0 0 0 0 0 0 -0 0 0 0 0 0 0 0 0 0 -0 -0 -0 -0
0 -0 -0 -0 -0 -0 -0 -0 -0 -0 -0 -0 -0 -0 -0 -0 -0 -0 -0 0 0 -0 -0 0 0 0 -0 -0 -0 -0 0 0 0 0 0 0 -0 0 0 0 0 0 0 -0 -0 -0 0 -0 -0
-0 -0 0 0 0 0 -0 -0 -0 -0 -0 -0 -0 -0 -0 -0 -0 -0 -0 0 0 -0 -0 -0 -0 -0 -0 -0 0 -0 -0 -0 -0 0 0 -0 -0 -0 -0 0 0 0 0 -0 -0 -0 -0 -0 0
-0 0 0 -0 -0 -0 0 -0 -0 -0 -0 -0 -0 -0 -0 -0 -0 -0 -0 -0 -0 -0 -0 -0 -0 -0 -0 0 0 0 0 -0 0 -0 0 0 -0 -0 -0 0 0 0 0 0 0 -0 -0 -0 -0
-0 0 0 0 0 0 -0 -0 -0 -0 -0 -0 -0 -0 -0 -0 -0 -0 -0 -0 -0 -0 -0 -0 -0 -0 -0 -0 -0 -0 0 0 0 -0 0 0 -0 -0 0 0 0 0 0 0 0 -0 -0 -0 0
0 0 0 0 -0 0 0 0 -0 -0 -0 -0 -0 -0 -0 -0 -0 -0 -0 -0 -0 -0 -0 -0 -0 -0 -0 -0 -0 -0 0 -0 -0 0 0 0 -0 -0 -0 0 0 0 0 0 0 -0 0 -0 -0
-0 0 0 0 -0 0 0 0 0 0 0 -0 -0 -0 -0 -0 -0 -0 -0 -0 -0 -0 -0 -0 -0 -0 -0 -0 -0 -0 -0 0 -0 -0 0 0 -0 -0 -0 0 0 0 0 0 -0 -0 -0 -0 -0
0 0 0 0 -0 -0 0 -0 -0 -0 0 0 -0 -0 -0 -0 -0 -0 -0 -0 -0 0 0 -0 -0 -0 -0 -0 -0 -0 -0 0 0 0 0 0 0 -0 -0 0 0 0 0 0 -0 -0 -0 -0 -0
0 0 0 0 0 0 0 0 0 0 0 0 0 -0 -0 -0 -0 -0 -0 -0 -0 -0 -0 -0 -0 -0 -0 -0 -0 -0 -0 -0 0 0 0 0 0 0 -0 -0 0 0 0 0 -0 0 -0 0 -0
0 -0 0 0 -0 0 0 0 0 0 0 -0 0 -0 -0 -0 -0 -0 -0 -0 -0 -0 -0 -0 -0 -0 -0 -0 -0 -0 -0 -0 -0 -0 0 0 0 0 0 -0 0 0 0 0 -0 0 0 0 -0
0 0 -0 0 0 0 0 0 0 0 0 -0 0 0 -0 -0 -0 -0 -0 -0 -0 -0 -0 -0 -0 -0 -0 0 0 0 -0 -0 -0 -0 -0 -0 0 0 0 -0 0 0 0 0 -0 -0 -0 0 0
0 0 0 0 0 0 0 0 0 0 0 0 0 0 -0 -0 -0 -0 -0 -0 -0 -0 -0 -0 -0 0 0 0 0 0 0 0 -0 0 -0 -0 0 -0 0 -0 -0 0 0 -0 -0 -0 -0 0 0
0 0 0 0 0 0 0 0 0 0 0 0 0 0 0 -0 -0 -0 -0 0 0 0 0 0 0 0 0 0 0 0 0 0 0 0 0 0 0 -0 -0 -0 -0 -0 -0 -0 -0 -0 -0 -0 -0
0 0 0 0 0 0 0 0 0 0 0 0 0 0 0 0 0 -0 0 0 0 0 0 0 -0 -0 -0 0 1 0 0 0 -0 -0 0 -0 -0 -0 -0 -0 -0 -0 -0 -0 -0 0 0 0 0
Wind_Speed_500mb
11 13 7 4 6 18 30 26 28 25 21 29 22 17 33 24 14 27 45 31 28 29 30 34 36 39 38 39 40 40 35 37 39 38 38 36 34 28 24 20 20 20 17 16 15 16 19 20 22
8 8 7 10 13 23 23 22 25 24 31 32 28 23 24 33 41 50 45 36 34 34 31 32 35 37 36 35 36 32 31 32 35 36 34 29 23 20 14 14 15 15 10 11 11 12 13 16 16
11 10 5 7 23 26 24 21 20 30 27 16 13 26 16 21 48 41 44 44 39 34 31 35 33 34 33 32 31 31 32 32 30 31 29 27 22 17 12 11 10 10 7 5 7 9 9 11 13
8 4 4 21 33 33 29 20 24 26 20 20 26 24 25 35 27 42 46 42 36 34 30 33 30 29 30 29 27 26 28 27 26 26 25 22 17 14 11 10 9 8 3 4 5 8 8 7 8
5 9 21 28 32 29 25 18 16 16 16 19 10 25 35 16 32 49 44 38 36 31 29 29 25 26 26 25 24 23 23 21 21 20 19 17 15 12 10 7 6 8 6 7 7 9 10 9 8
5 7 20 25 26 20 22 20 15 21 21 24 36 48 30 27 45 42 39 37 33 33 29 23 24 21 21 21 22 20 20 20 16 16 14 12 12 10 9 6 5 3 3 4 6 11 11 14 12
10 17 22 27 22 20 17 17 20 23 25 29 44 29 32 40 43 39 37 33 31 30 26 22 17 19 21 21 19 17 15 18 18 14 14 12 13 11 9 8 7 5 6 4 8 7 12 16 18
5 5 16 12 21 19 14 23 18 24 28 33 38 16 41 49 44 38 35 34 29 24 23 23 19 14 16 14 17 17 17 15 15 14 12 11 9 7 6 6 4 4 4 5 6 10 12 18 20
7 6 17 15 16 16 21 16 11 20 34 16 6 34 48 53 45 40 36 32 29 24 22 18 15 15 17 13 11 12 12 12 11 8 10 7 8 3 3 6 7 4 8 5 6 7 11 14 16
11 17 15 8 9 17 16 12 23 22 25 19 26 35 55 55 47 42 38 34 28 25 21 21 19 16 14 14 12 13 9 8 10 10 11 11 7 7 7 6 3 2 5 7 8 9 9 11 15
18 16 15 13 10 15 16 16 14 22 12 18 41 54 54 51 46 40 34 30 28 25 22 21 20 18 15 13 14 11 9 9 9 9 8 11 6 3 3 1 1 2 2 9 9 11 10 14 11
21 16 13 14 10 17 12 15 14 9 12 21 42 55 51 45 42 38 34 30 29 26 22 19 18 17 16 13 11 12 12 10 10 7 8 3 4 3 5 6 8 6 11 7 8 10 15 14 16
22 16 12 14 12 15 10 9 9 12 21 35 48 50 46 41 37 34 32 30 30 28 25 22 21 19 18 19 14 13 12 10 9 8 5 2 3 4 6 3 7 8 8 6 5 4 6 9 17
8 14 18 14 15 12 6 13 15 16 30 42 49 48 43 39 37 33 32 31 30 28 27 24 23 22 21 19 20 13 13 11 10 7 5 4 4 5 6 6 8 5 4 5 6 5 6 6 6
13 15 18 17 15 9 16 16 5 31 36 44 45 46 43 37 36 34 32 31 29 28 29 27 26 24 26 24 21 14 11 8 7 6 3 1 2 4 7 4 5 5 1 3 1 10 3 5 9
8 8 11 10 14 10 15 15 16 35 40 44 45 44 43 40 37 33 31 30 29 27 31 29 26 26 25 22 22 14 11 10 7 6 4 6 6 4 3 7 1 4 4 3 4 4 2 6 5
6 14 7 10 10 6 12 16 27 33 37 41 45 46 44 44 39 35 32 31 30 29 30 31 29 27 26 26 23 18 14 11 9 9 5 10 4 3 3 2 2 5 2 2 4 3 3 2 2
6 8 6 12 7 8 8 13 26 36 37 39 43 47 47 46 45 40 37 33 31 30 30 32 29 28 29 23 26 19 14 12 9 9 6 5 7 5 1 3 2 5 4 1 2 2 2 3 8
3 4 4 11 8 8 7 10 25 37 38 39 41 45 48 48 46 41 40 37 35 34 34 36 35 34 30 27 22 18 13 11 8 6 6 3 2 5 6 3 6 5 2 6 4 3 8 11 23
15 13 6 11 6 9 4 15 20 39 46 45 44 46 47 45 46 46 43 40 41 40 40 39 40 40 36 27 22 18 16 14 11 9 10 7 7 7 4 7 6 10 8 6 6 12 11 10 11
27 21 3 11 7 11 16 16 16 30 36 43 44 43 44 48 49 50 48 44 41 42 44 45 45 42 41 34 27 23 18 21 13 13 10 12 10 10 8 10 9 10 7 6 5 14 17 9 10
33 6 7 6 12 7 6 2 18 21 30 39 45 48 47 49 48 49 49 47 44 43 40 41 45 46 41 40 31 28 19 17 15 15 12 14 18 14 11 9 8 6 8 10 6 15 16 17 11
32 1 7 6 20 13 19 14 19 19 21 29 45 51 53 53 52 50 48 48 45 39 40 39 41 46 45 42 40 32 26 19 15 15 18 14 15 16 15 11 9 5 7 11 11 11 17 14 15
17 16 19 17 20 21 13 14 18 19 10 9 22 50 59 57 56 51 45 40 41 39 36 35 37 43 45 41 40 40 30 24 18 18 19 16 14 15 18 14 13 12 10 10 11 11 13 18 19
23 29 22 23 22 20 12 13 21 11 10 2 6 39 55 55 54 51 48 45 41 40 38 36 38 39 40 41 37 38 35 30 27 23 20 20 17 15 19 17 16 13 12 12 14 13 16 18 17
33 36 21 20 23 16 11 15 7 6 8 6 7 29 51 53 51 51 54 52 48 43 41 40 38 38 38 41 38 36 36 33 29 26 22 22 18 17 19 15 17 17 16 13 13 11 10 15 15
30 31 32 35 7 16 9 10 21 6 6 5 14 21 42 49 52 54 53 52 48 45 42 42 42 41 35 35 40 40 40 38 31 31 28 25 26 21 24 18 17 17 16 16 15 11 14 16 14
20 33 21 19 25 21 18 12 18 14 11 8 16 19 29 38 43 43 43 45 46 45 42 37 37 35 36 26 28 33 36 40 40 41 37 33 29 29 28 25 21 21 18 17 17 15 15 15 16
19 19 24 19 13 19 18 14 16 10 9 11 15 12 14 22 33 41 40 37 37 39 42 37 33 38 37 16 36 37 34 36 38 39 41 41 38 37 35 33 30 26 25 22 21 21 21 17 20
30 38 32 22 26 19 22 21 9 6 10 15 13 13 8 11 19 31 36 34 34 36 38 39 43 40 37 36 33 59 42 37 44 35 35 40 43 42 40 39 38 35 32 30 27 26 22 20 19
Wind_Direction_500mb
40 70 54 300 137 76 77 77 101 110 91 90 85 82 75 36 6 102 141 139 146 123 129 126 124 127 136 131 132 136 141 141 146 148 144 145 142 136 127 120 120 113 113 105 95 83 83 82 85
42 31 359 281 80 78 74 101 90 77 104 109 89 71 72 78 100 125 135 146 130 127 123 128 133 134 134 130 132 136 137 139 151 154 152 152 157 153 140 131 133 138 115 99 84 83 75 71 78
48 40 303 49 53 59 76 78 96 110 120 86 94 78 70 99 122 126 139 136 130 123 128 129 134 133 132 131 131 133 132 139 151 149 155 160 164 171 168 161 158 149 144 108 100 93 101 84 68
2 3 235 67 76 67 74 83 108 118 108 83 111 84 91 125 125 135 139 134 131 127 132 127 129 129 131 127 129 133 132 139 149 153 158 168 178 179 168 170 184 190 197 249 151 155 147 122 104
29 253 88 81 86 77 76 74 109 116 99 116 120 124 118 123 132 137 139 137 132 133 130 132 133 133 130 130 130 127 133 142 152 157 169 177 195 185 179 194 208 226 226 232 199 176 168 136 134
191 282 82 85 90 78 60 76 106 101 115 102 116 125 121 134 141 144 142 141 137 131 132 125 130 127 129 133 126 130 140 141 146 151 164 173 184 176 161 174 182 145 166 124 152 185 164 153 138
343 64 75 92 104 90 69 63 82 102 114 112 130 125 136 148 152 148 144 146 142 137 136 127 130 131 129 129 131 137 145 146 140 151 148 153 170 159 153 165 143 140 142 118 126 155 148 148 158
323 82 87 63 81 91 97 86 89 87 93 125 132 153 157 157 154 150 151 151 152 147 140 142 135 137 121 131 137 148 140 144 141 145 147 163 153 152 153 121 110 137 177 158 123 148 156 163 169
270 94 70 63 58 118 128 105 82 109 130 109 106 146 154 155 154 156 158 160 162 156 155 149 147 147 151 142 154 136 140 142 136 128 148 125 151 160 183 204 185 183 173 182 178 155 158 171 178
347 50 63 48 86 127 143 117 127 140 125 116 122 132 152 156 160 164 167 169 167 169 165 163 164 171 159 153 155 156 161 143 157 166 151 157 166 162 143 155 176 298 169 175 173 171 170 170 167
33 89 120 90 77 140 130 138 146 145 165 138 146 147 156 162 167 172 173 173 172 176 177 177 177 179 160 163 159 163 161 161 171 153 158 166 147 193 175 93 307 34 163 184 173 187 176 184 200
97 97 105 116 119 153 161 137 144 68 73 137 153 154 160 168 173 176 178 178 181 183 183 185 192 183 171 181 157 173 160 160 142 185 143 150 107 301 12 52 26 57 97 127 167 179 197 174 186
105 109 96 139 116 136 144 163 107 110 120 137 149 157 165 170 174 179 180 183 185 189 189 188 187 188 181 166 176 174 166 155 166 172 196 175 43 44 42 98 84 54 82 98 61 3 174 189 178
116 117 116 133 127 119 174 137 149 136 141 147 157 164 166 170 172 176 182 186 190 190 191 185 181 178 166 166 153 163 156 168 164 178 182 121 57 11 44 61 66 91 151 140 131 167 137 148 152
146 135 139 147 153 138 129 155 173 153 157 156 165 170 170 172 171 174 178 185 191 190 188 185 180 178 160 160 157 166 175 172 172 174 166 251 346 32 65 116 112 144 165 24 114 86 60 140 191
146 170 144 143 192 163 223 114 144 161 166 166 171 172 175 178 175 172 175 178 186 185 189 183 181 184 179 180 172 184 197 207 201 223 234 329 350 358 31 47 144 166 130 108 103 113 115 38 208
197 93 56 133 188 167 245 116 158 173 175 174 177 181 183 182 184 186 182 182 186 184 187 190 191 190 196 194 191 197 209 199 222 242 252 272 287 4 24 42 298 196 174 175 170 54 330 340 210
87 107 111 30 87 231 217 126 167 182 186 181 184 187 191 193 193 193 193 190 191 193 191 193 198 196 201 205 204 205 216 220 232 245 257 282 254 259 251 269 220 192 188 266 210 141 121 83 134
294 317 25 86 34 267 244 246 172 184 195 190 189 192 197 200 197 197 200 200 200 201 202 203 201 203 202 207 208 213 217 221 228 240 258 284 303 284 249 221 249 196 184 202 295 28 130 112 110
238 266 116 128 65 267 222 262 188 184 198 200 196 194 198 198 196 196 199 201 206 208 209 208 210 213 211 211 214 213 215 219 225 242 260 273 282 321 253 246 249 217 241 269 294 158 153 145 144
239 256 44 347 332 243 292 230 181 190 201 202 206 204 199 198 196 195 198 203 206 209 212 214 216 218 218 210 218 225 223 227 241 248 259 252 289 289 270 260 233 251 212 262 279 177 175 179 186
248 125 191 247 281 323 327 298 175 169 202 206 207 204 205 204 203 202 202 204 206 213 215 217 219 221 224 223 217 222 219 230 236 241 255 247 271 263 259 244 235 217 198 225 240 197 191 175 199
254 231 216 242 265 263 194 261 110 158 194 208 211 211 209 202 205 204 204 203 205 208 214 217 218 223 221 223 221 227 224 234 235 235 246 259 262 244 251 255 262 261 206 227 222 211 204 217 201
244 232 220 242 269 268 216 253 169 151 93 157 195 205 208 204 205 206 206 202 206 209 212 214 219 224 222 226 223 230 224 229 232 239 243 251 251 253 247 255 252 253 240 231 218 221 233 220 226
209 226 234 227 228 244 110 234 268 54 48 154 226 193 199 202 203 204 205 204 204 207 209 209 214 217 217 221 226 229 233 242 248 246 249 238 248 254 253 251 252 252 262 258 236 233 245 249 244
217 228 229 216 241 240 142 237 218 70 347 343 202 180 189 195 198 201 205 205 203 203 204 205 209 210 215 220 224 231 233 237 242 247 233 236 237 253 249 256 247 259 261 261 261 246 245 260 254
192 228 245 272 232 283 246 196 272 159 116 76 142 158 184 194 196 196 199 202 201 202 203 205 203 206 209 219 226 230 235 232 229 230 241 243 243 246 258 259 255 265 266 259 257 240 251 258 265
260 213 208 234 257 242 244 232 278 201 292 148 154 177 173 192 197 198 198 199 197 200 199 197 200 200 205 209 230 230 235 240 238 243 246 240 241 251 250 260 261 262 269 260 255 242 248 252 259
195 209 234 282 237 275 257 247 262 283 307 187 149 177 184 196 194 197 195 195 190 188 188 187 174 188 193 186 276 236 228 245 246 245 247 249 249 252 255 260 261 262 261 264 254 241 241 256 253
232 217 217 224 218 242 286 291 12 116 149 163 137 140 140 172 184 187 179 172 178 177 176 174 179 202 213 243 269 236 239 242 247 246 253 254 252 253 254 256 256 257 258 257 261 255 239 254 257
Wind_Speed_850mb
11 13 7 4 6 18 30 26 28 25 21 29 22 17 33 24 14 27 45 31 28 29 30 34 36 39 38 39 40 40 35 37 39 38 38 36 34 28 24 20 20 20 17 16 15 16 19 20 22
8 8 7 10 13 23 23 22 25 24 31 32 28 23 24 33 41 50 45 36 34 34 31 32 35 37 36 35 36 32 31 32 35 36 34 29 23 20 14 14 15 15 10 11 11 12 13 16 16
11 10 5 7 23 26 24 21 20 30 27 16 13 26 16 21 48 41 44 44 39 34 31 35 33 34 33 32 31 31 32 32 30 31 29 27 22 17 12 11 10 10 7 5 7 9 9 11 13
8 4 4 21 33 33 29 20 24 26 20 20 26 24 25 35 27 42 46 42 36 34 30 33 30 29 30 29 27 26 28 27 26 26 25 22 17 14 11 10 9 8 3 4 5 8 8 7 8
5 9 21 28 32 29 25 18 16 16 16 19 10 25 35 16 32 49 44 38 36 31 29 29 25 26 26 25 24 23 23 21 21 20 19 17 15 12 10 7 6 8 6 7 7 9 10 9 8
5 7 20 25 26 20 22 20 15 21 21 24 36 48 30 27 45 42 39 37 33 33 29 23 24 21 21 21 22 20 20 20 16 16 14 12 12 10 9 6 5 3 3 4 6 11 11 14 12
10 17 22 27 22 20 17 17 20 23 25 29 44 29 32 40 43 39 37 33 31 30 26 22 17 19 21 21 19 17 15 18 18 14 14 12 13 11 9 8 7 5 6 4 8 7 12 16 18
5 5 16 12 21 19 14 23 18 24 28 33 38 16 41 49 44 38 35 34 29 24 23 23 19 14 16 14 17 17 17 15 15 14 12 11 9 7 6 6 4 4 4 5 6 10 12 18 20
7 6 17 15 16 16 21 16 11 20 34 16 6 34 48 53 45 40 36 32 29 24 22 18 15 15 17 13 11 12 12 12 11 8 10 7 8 3 3 6 7 4 8 5 6 7 11 14 16
11 17 15 8 9 17 16 12 23 22 25 19 26 35 55 55 47 42 38 34 28 25 21 21 19 16 14 14 12 13 9 8 10 10 11 11 7 7 7 6 3 2 5 7 8 9 9 11 15
18 16 15 13 10 15 16 16 14 22 12 18 41 54 54 51 46 40 34 30 28 25 22 21 20 18 15 13 14 11 9 9 9 9 8 11 6 3 3 1 1 2 2 9 9 11 10 14 11
21 16 13 14 10 17 12 15 14 9 12 21 42 55 51 45 42 38 34 30 29 26 22 19 18 17 16 13 11 12 12 10 10 7 8 3 4 3 5 6 8 6 11 7 8 10 15 14 16
22 16 12 14 12 15 10 9 9 12 21 35 48 50 46 41 37 34 32 30 30 28 25 22 21 19 18 19 14 13 12 10 9 8 5 2 3 4 6 3 7 8 8 6 5 4 6 9 17
8 14 18 14 15 12 6 13 15 16 30 42 49 48 43 39 37 33 32 31 30 28 27 24 23 22 21 19 20 13 13 11 10 7 5 4 4 5 6 6 8 5 4 5 6 5 6 6 6
13 15 18 17 15 9 16 16 5 31 36 44 45 46 43 37 36 34 32 31 29 28 29 27 26 24 26 24 21 14 11 8 7 6 3 1 2 4 7 4 5 5 1 3 1 10 3 5 9
8 8 11 10 14 10 15 15 16 35 40 44 45 44 43 40 37 33 31 30 29 27 31 29 26 26 25 22 22 14 11 10 7 6 4 6 6 4 3 7 1 4 4 3 4 4 2 6 5
6 14 7 10 10 6 12 16 27 33 37 41 45 46 44 44 39 35 32 31 30 29 30 31 29 27 26 26 23 18 14 11 9 9 5 10 4 3 3 2 2 5 2 2 4 3 3 2 2
6 8 6 12 7 8 8 13 26 36 37 39 43 47 47 46 45 40 37 33 31 30 30 32 29 28 29 23 26 19 14 12 9 9 6 5 7 5 1 3 2 5 4 1 2 2 2 3 8
3 4 4 11 8 8 7 10 25 37 38 39 41 45 48 48 46 41 40 37 35 34 34 36 35 34 30 27 22 18 13 11 8 6 6 3 2 5 6 3 6 5 2 6 4 3 8 11 23
15 13 6 11 6 9 4 15 20 39 46 45 44 46 47 45 46 46 43 40 41 40 40 39 40 40 36 27 22 18 16 14 11 9 10 7 7 7 4 7 6 10 8 6 6 12 11 10 11
27 21 3 11 7 11 16 16 16 30 36 43 44 43 44 48 49 50 48 44 41 42 44 45 45 42 41 34 27 23 18 21 13 13 10 12 10 10 8 10 9 10 7 6 5 14 17 9 10
33 6 7 6 12 7 6 2 18 21 30 39 45 48 47 49 48 49 49 47 44 43 40 41 45 46 41 40 31 28 19 17 15 15 12 14 18 14 11 9 8 6 8 10 6 15 16 17 11
32 1 7 6 20 13 19 14 19 19 21 29 45 51 53 53 52 50 48 48 45 39 40 39 41 46 45 42 40 32 26 19 15 15 18 14 15 16 15 11 9 5 7 11 11 11 17 14 15
17 16 19 17 20 21 13 14 18 19 10 9 22 50 59 57 56 51 45 40 41 39 36 35 37 43 45 41 40 40 30 24 18 18 19 16 14 15 18 14 13 12 10 10 11 11 13 18 19
23 29 22 23 22 20 12 13 21 11 10 2 6 39 55 55 54 51 48 45 41 40 38 36 38 39 40 41 37 38 35 30 27 23 20 20 17 15 19 17 16 13 12 12 14 13 16 18 17
33 36 21 20 23 16 11 15 7 6 8 6 7 29 51 53 51 51 54 52 48 43 41 40 38 38 38 41 38 36 36 33 29 26 22 22 18 17 19 15 17 17 16 13 13 11 10 15 15
30 31 32 35 7 16 9 10 21 6 6 5 14 21 42 49 52 54 53 52 48 45 42 42 42 41 35 35 40 40 40 38 31 31 28 25 26 21 24 18 17 17 16 16 15 11 14 16 14
20 33 21 19 25 21 18 12 18 14 11 8 16 19 29 38 43 43 43 45 46 45 42 37 37 35 36 26 28 33 36 40 40 41 37 33 29 29 28 25 21 21 18 17 17 15 15 15 16
19 19 24 19 13 19 18 14 16 10 9 11 15 12 14 22 33 41 40 37 37 39 42 37 33 38 37 16 36 37 34 36 38 39 41 41 38 37 35 33 30 26 25 22 21 21 21 17 20
30 38 32 22 26 19 22 21 9 6 10 15 13 13 8 11 19 31 36 34 34 36 38 39 43 40 37 36 33 59 42 37 44 35 35 40 43 42 40 39 38 35 32 30 27 26 22 20 19
Wind_Direction_850mb
40 70 54 300 137 76 77 77 101 110 91 90 85 82 75 36 6 102 141 139 146 123 129 126 124 127 136 131 132 136 141 141 146 148 144 145 142 136 127 120 120 113 113 105 95 83 83 82 85
42 31 359 281 80 78 74 101 90 77 104 109 89 71 72 78 100 125 135 146 130 127 123 128 133 134 134 130 132 136 137 139 151 154 152 152 157 153 140 131 133 138 115 99 84 83 75 71 78
48 40 303 49 53 59 76 78 96 110 120 86 94 78 70 99 122 126 139 136 130 123 128 129 134 133 132 131 131 133 132 139 151 149 155 160 164 171 168 161 158 149 144 108 100 93 101 84 68
2 3 235 67 76 67 74 83 108 118 108 83 111 84 91 125 125 135 139 134 131 127 132 127 129 129 131 127 129 133 132 139 149 153 158 168 178 179 168 170 184 190 197 249 151 155 147 122 104
29 253 88 81 86 77 76 74 109 116 99 116 120 124 118 123 132 137 139 137 132 133 130 132 133 133 130 130 130 127 133 142 152 157 169 177 195 185 179 194 208 226 226 232 199 176 168 136 134
191 282 82 85 90 78 60 76 106 101 115 102 116 125 121 134 141 144 142 141 137 131 132 125 130 127 129 133 126 130 140 141 146 151 164 173 184 176 161 174 182 145 166 124 152 185 164 153 138
343 64 75 92 104 90 69 63 82 102 114 112 130 125 136 148 152 148 144 146 142 137 136 127 130 131 129 129 131 137 145 146 140 151 148 153 170 159 153 165 143 140 142 118 126 155 148 148 158
323 82 87 63 81 91 97 86 89 87 93 125 132 153 157 157 154 150 151 151 152 147 140 142 135 137 121 131 137 148 140 144 141 145 147 163 153 152 153 121 110 137 177 158 123 148 156 163 169
270 94 70 63 58 118 128 105 82 109 130 109 106 146 154 155 154 156 158 160 162 156 155 149 147 147 151 142 154 136 140 142 136 128 148 125 151 160 183 204 185 183 173 182 178 155 158 171 178
347 50 63 48 86 127 143 117 127 140 125 116 122 132 152 156 160 164 167 169 167 169 165 163 164 171 159 153 155 156 161 143 157 166 151 157 166 162 143 155 176 298 169 175 173 171 170 170 167
33 89 120 90 77 140 130 138 146 145 165 138 146 147 156 162 167 172 173 173 172 176 177 177 177 179 160 163 159 163 161 161 171 153 158 166 147 193 175 93 307 34 163 184 173 187 176 184 200
97 97 105 116 119 153 161 137 144 68 73 137 153 154 160 168 173 176 178 178 181 183 183 185 192 183 171 181 157 173 160 160 142 185 143 150 107 301 12 52 26 57 97 127 167 179 197 174 186
105 109 96 139 116 136 144 163 107 110 120 137 149 157 165 170 174 179 180 183 185 189 189 188 187 188 181 166 176 174 166 155 166 172 196 175 43 44 42 98 84 54 82 98 61 3 174 189 178
116 117 116 133 127 119 174 137 149 136 141 147 157 164 166 170 172 176 182 186 190 190 191 185 181 178 166 166 153 163 156 168 164 178 182 121 57 11 44 61 66 91 151 140 131 167 137 148 152
146 135 139 147 153 138 129 155 173 153 157 156 165 170 170 172 171 174 178 185 191 190 188 185 180 178 160 160 157 166 175 172 172 174 166 251 346 32 65 116 112 144 165 24 114 86 60 140 191
146 170 144 143 192 163 223 114 144 161 166 166 171 172 175 178 175 172 175 178 186 185 189 183 181 184 179 180 172 184 197 207 201 223 234 329 350 358 31 47 144 166 130 108 103 113 115 38 208
197 93 56 133 188 167 245 116 158 173 175 174 177 181 183 182 184 186 182 182 186 184 187 190 191 190 196 194 191 197 209 199 222 242 252 272 287 4 24 42 298 196 174 175 170 54 330 340 210
87 107 111 30 87 231 217 126 167 182 186 181 184 187 191 193 193 193 193 190 191 193 191 193 198 196 201 205 204 205 216 220 232 245 257 282 254 259 251 269 220 192 188 266 210 141 121 83 134
294 317 25 86 34 267 244 246 172 184 195 190 189 192 197 200 197 197 200 200 200 201 202 203 201 203 202 207 208 213 217 221 228 240 258 284 303 284 249 221 249 196 184 202 295 28 130 112 110
238 266 116 128 65 267 222 262 188 184 198 200 196 194 198 198 196 196 199 201 206 208 209 208 210 213 211 211 214 213 215 219 225 242 260 273 282 321 253 246 249 217 241 269 294 158 153 145 144
239 256 44 347 332 243 292 230 181 190 201 202 206 204 199 198 196 195 198 203 206 209 212 214 216 218 218 210 218 225 223 227 241 248 259 252 289 289 270 260 233 251 212 262 279 177 175 179 186
248 125 191 247 281 323 327 298 175 169 202 206 207 204 205 204 203 202 202 204 206 213 215 217 219 221 224 223 217 222 219 230 236 241 255 247 271 263 259 244 235 217 198 225 240 197 191 175 199
254 231 216 242 265 263 194 261 110 158 194 208 211 211 209 202 205 204 204 203 205 208 214 217 218 223 221 223 221 227 224 234 235 235 246 259 262 244 251 255 262 261 206 227 222 211 204 217 201
244 232 220 242 269 268 216 253 169 151 93 157 195 205 208 204 205 206 206 202 206 209 212 214 219 224 222 226 223 230 224 229 232 239 243 251 251 253 247 255 252 253 240 231 218 221 233 220 226
209 226 234 227 228 244 110 234 268 54 48 154 226 193 199 202 203 204 205 204 204 207 209 209 214 217 217 221 226 229 233 242 248 246 249 238 248 254 253 251 252 252 262 258 236 233 245 249 244
217 228 229 216 241 240 142 237 218 70 347 343 202 180 189 195 198 201 205 205 203 203 204 205 209 210 215 220 224 231 233 237 242 247 233 236 237 253 249 256 247 259 261 261 261 246 245 260 254
192 228 245 272 232 283 246 196 272 159 116 76 142 158 184 194 196 196 199 202 201 202 203 205 203 206 209 219 226 230 235 232 229 230 241 243 243 246 258 259 255 265 266 259 257 240 251 258 265
260 213 208 234 257 242 244 232 278 201 292 148 154 177 173 192 197 198 198 199 197 200 199 197 200 200 205 209 230 230 235 240 238 243 246 240 241 251 250 260 261 262 269 260 255 242 248 252 259
195 209 234 282 237 275 257 247 262 283 307 187 149 177 184 196 194 197 195 195 190 188 188 187 174 188 193 186 276 236 228 245 246 245 247 249 249 252 255 260 261 262 261 264 254 241 241 256 253
232 217 217 224 218 242 286 291 12 116 149 163 137 140 140 172 184 187 179 172 178 177 176 174 179 202 213 243 269 236 239 242 247 246 253 254 252 253 254 256 256 257 258 257 261 255 239 254 257